Location: Kalberh�ni
(46.4610°N, 7.2453°E)
Time: 22:19:40
(UTC+00:00)

USA 229 - Pass Details

Date: 25 October 2021
Orbit: 946 x 1266 km, 63.4° (Epoch: 25 November)

Event Time Altitude Azimuth Distance (km) Brightness Sun altitude
Exits shadow 02:58:28 28° 171° (S) 2,114 5.1 -32.1°
Drops below altitude 10° 03:01:56 10° 162° (SSE) 3,220 6.2 -31.5°
Sets 03:04:48 0° 159° (SSE) 4,200 6.9 -31.0°
